GFSGBSN_925_thetae_210.txt.gz
Theta_e
312 311 310 309 309 308 308 307 307 307 307 308 308 309 310 311 313 314 314 314 314 314 315 315 314 315 320 331 330 327 327 328 329 329 332 335 338 337 338 336 339 337 338 342 343 344 345
312 311 310 309 309 309 308 308 308 308 307 307 308 309 310 311 312 313 314 315 314 314 315 315 315 315 329 329 326 331 331 333 330 329 333 335 337 337 337 337 337 337 339 339 339 338 343
312 311 310 309 310 309 309 309 309 309 308 308 308 309 310 310 311 312 314 315 314 314 315 315 315 320 327 327 324 326 329 329 328 332 334 333 334 337 338 338 336 337 339 341 337 335 337
312 312 310 310 310 309 308 309 308 308 308 309 310 311 311 311 312 312 313 315 315 314 315 315 315 324 330 324 324 324 329 329 329 331 331 331 333 337 337 336 336 338 339 343 338 334 334
312 312 311 310 309 308 308 307 307 307 308 311 313 313 312 312 313 312 313 315 314 314 315 316 321 326 329 323 321 323 329 330 329 328 328 329 331 334 336 337 339 339 342 343 337 335 333
312 312 311 310 309 309 307 307 306 308 313 314 314 314 313 313 313 313 314 315 318 315 319 324 325 329 329 327 323 325 328 329 329 328 329 328 329 332 334 337 340 340 341 337 337 335 334
313 312 312 311 310 308 306 306 308 312 314 314 315 314 315 315 314 313 317 321 325 328 329 328 327 330 326 326 325 327 328 328 329 329 329 329 329 332 334 336 336 336 334 334 336 334 334
314 312 312 310 309 306 305 306 309 313 313 314 314 314 314 315 315 313 316 328 327 329 330 328 328 326 328 327 328 328 329 329 330 330 330 330 332 331 333 332 333 332 331 333 336 334 334
313 313 312 310 307 305 305 306 312 313 313 314 314 314 314 316 315 313 319 324 325 326 332 332 327 325 327 328 329 330 329 330 331 331 330 331 332 331 330 330 331 330 329 332 335 333 333
309 313 312 310 308 305 305 307 313 313 313 314 314 314 315 315 314 321 322 325 326 324 334 332 329 328 329 329 330 331 330 330 331 330 331 330 330 329 328 327 327 328 333 333 333 333 336
307 313 311 310 309 305 305 310 313 312 313 314 314 316 316 315 321 328 328 325 324 328 343 332 331 330 331 330 332 331 330 330 330 329 330 330 329 328 327 329 329 329 332 333 333 334 335
307 313 310 309 309 306 305 309 313 312 312 315 315 317 316 316 318 328 328 326 327 333 339 334 332 331 331 330 332 331 329 330 330 331 329 329 331 329 329 331 330 331 331 332 334 336 339
310 313 310 309 309 308 305 309 312 312 313 316 318 318 313 323 330 328 328 328 332 336 336 334 331 330 331 332 332 331 330 330 332 335 337 333 332 331 330 330 332 331 331 336 341 344 343
315 314 310 309 310 309 306 309 311 312 314 318 322 318 316 323 326 327 328 331 336 332 333 333 333 331 332 331 332 332 332 333 333 334 336 336 338 335 333 332 333 334 334 335 343 342 342
315 314 311 310 310 310 307 309 311 312 315 318 318 319 325 323 325 328 331 334 332 337 334 333 332 332 333 333 333 333 333 334 335 335 337 338 337 334 333 332 333 336 336 335 336 334 334
309 316 313 310 310 310 309 308 311 313 318 320 324 328 328 328 327 328 333 332 334 337 335 334 333 333 335 333 332 333 333 335 335 335 335 337 339 337 334 333 333 333 334 335 336 341 342
308 312 315 312 310 310 310 307 311 314 319 320 324 336 330 328 329 332 333 333 335 335 335 333 334 336 336 338 334 336 337 337 335 334 334 334 335 337 336 335 336 335 335 337 337 338 342
310 309 314 315 311 310 311 308 311 314 318 323 330 338 328 328 331 331 331 334 327 333 331 334 336 336 335 336 336 335 337 335 333 333 332 333 335 338 336 334 334 336 337 337 338 338 336
311 311 311 315 314 311 311 311 310 314 316 322 339 332 327 328 332 330 331 334 333 333 333 333 334 335 336 337 337 337 336 333 332 331 334 332 334 332 331 331 331 332 334 335 336 335 338
313 311 311 312 316 312 312 313 311 316 317 319 336 332 328 328 331 336 333 334 332 332 334 334 335 335 335 335 334 334 335 334 331 329 330 329 327 327 328 329 329 330 330 331 333 333 332
315 313 311 312 314 315 312 314 313 317 319 322 335 338 332 329 330 332 333 333 334 333 332 333 334 333 333 334 335 334 332 331 330 334 328 326 327 328 328 328 327 326 326 325 325 325 326
315 315 313 311 312 316 313 313 313 317 322 328 333 335 335 335 335 332 328 333 333 332 333 333 332 332 331 331 331 332 330 330 330 330 329 329 330 329 329 328 327 327 327 326 326 325 325
314 314 314 312 312 315 315 313 313 314 322 325 323 327 333 334 333 333 333 332 332 332 331 330 331 331 331 331 329 328 326 326 326 327 327 328 328 330 330 328 328 329 329 331 330 329 329
314 314 314 313 312 313 316 314 313 313 313 319 322 325 332 333 331 333 332 332 331 332 333 330 328 329 330 328 326 325 324 324 324 325 325 326 328 329 332 332 333 330 330 330 329 328 328
314 314 314 313 311 312 316 315 313 314 314 318 321 324 330 333 330 329 329 328 329 328 328 328 327 327 324 322 323 325 327 329 329 328 326 327 327 329 331 330 330 327 333 332 332 332 330
312 314 314 313 312 311 314 316 315 313 314 319 322 322 326 329 329 327 327 327 328 329 328 327 324 324 322 322 324 329 331 331 331 331 328 327 327 328 329 329 329 333 330 327 326 327 330
308 312 314 313 313 311 312 316 315 314 314 315 322 322 324 330 327 325 327 328 327 326 326 327 326 324 324 323 326 328 329 330 329 329 329 332 333 331 330 330 328 330 327 326 327 330 328
306 308 312 313 313 311 311 314 316 315 313 314 322 322 321 326 327 325 323 324 326 324 326 328 327 325 323 327 327 329 329 330 331 330 329 329 331 329 327 326 327 329 330 331 331 328 328
305 305 310 313 313 312 310 313 315 315 313 314 322 323 321 323 327 324 321 322 323 324 326 327 326 329 326 329 328 328 328 328 328 328 329 329 327 327 327 328 330 326 327 328 328 329 328

GFSGBSN_925_thetae_216.txt.gz
Theta_e
312 311 311 310 309 309 309 309 309 309 309 309 309 309 310 310 311 313 313 314 315 314 314 314 315 314 316 323 325 327 327 328 328 327 328 327 328 330 332 334 335 337 338 343 344 344 348
312 312 311 310 309 309 309 308 308 308 308 309 310 310 311 310 311 312 313 314 314 314 314 314 314 314 326 324 324 329 329 331 330 328 330 327 329 328 333 334 334 335 336 341 342 342 343
312 312 311 310 310 309 307 308 307 308 310 312 313 312 312 311 311 312 313 313 314 314 314 314 314 317 325 319 325 328 327 330 330 329 327 328 328 329 330 332 333 333 336 338 335 332 340
313 312 312 310 309 307 306 307 307 308 311 313 314 313 313 312 312 312 313 314 314 315 314 314 314 320 319 317 320 324 323 323 326 328 328 328 329 328 331 329 330 334 335 339 339 333 334
313 313 311 310 309 306 306 307 306 308 312 313 313 313 313 313 312 312 313 314 315 315 314 314 318 321 321 327 323 324 323 323 326 328 328 328 327 326 325 327 327 332 335 340 338 335 333
310 313 311 310 309 307 305 305 307 311 312 313 312 313 314 315 314 313 314 315 315 315 320 320 323 322 322 328 322 323 323 323 324 325 324 325 319 322 320 322 327 334 339 340 337 336 333
308 312 310 310 309 307 306 305 306 310 312 313 313 313 315 316 316 314 314 320 316 321 321 315 318 324 326 328 325 320 322 323 325 324 324 323 322 322 322 321 325 328 331 330 331 336 332
308 313 310 309 309 309 307 306 307 310 311 312 313 314 316 316 316 314 313 318 322 321 321 321 323 323 324 325 322 320 322 325 326 325 325 323 322 323 322 324 326 329 328 326 329 334 330
312 313 310 309 309 309 308 306 308 310 311 313 313 314 315 317 316 314 314 318 321 320 321 325 323 323 324 323 323 322 323 324 326 326 325 324 326 325 325 325 327 325 326 325 326 330 329
316 313 311 310 310 310 309 307 308 310 312 312 313 314 315 315 313 318 317 326 321 318 321 327 326 324 324 323 324 324 325 325 325 326 325 324 325 326 325 326 323 324 323 327 331 329 329
316 315 312 310 310 310 310 307 309 311 312 312 313 314 316 312 320 321 326 327 323 321 338 331 325 326 321 323 326 326 326 325 326 326 327 326 326 325 325 324 323 323 324 328 331 333 332
310 315 315 312 310 310 310 308 310 311 312 313 314 316 316 315 314 323 326 327 322 326 335 329 328 324 323 324 326 326 327 326 326 327 325 325 324 326 324 325 325 327 328 324 334 334 337
310 310 313 315 313 311 311 310 311 312 313 314 316 317 317 316 321 326 326 322 324 330 330 330 329 326 325 326 326 326 326 326 325 327 326 327 327 324 326 327 324 327 322 325 338 341 341
312 312 311 313 315 313 311 311 311 313 315 317 318 320 319 318 319 325 325 322 332 334 336 333 328 326 328 326 326 327 325 324 323 325 325 329 333 325 326 326 325 328 322 325 335 343 338
315 314 312 312 314 315 312 313 312 315 316 319 317 319 317 319 317 317 321 327 329 335 336 335 326 326 326 327 327 327 325 325 324 322 330 331 332 331 327 327 326 329 329 324 327 330 335
316 315 314 313 313 315 314 313 313 316 318 320 323 324 324 319 320 323 324 327 328 332 334 330 331 327 328 328 327 327 327 330 333 331 326 329 331 329 333 329 327 329 327 329 325 333 339
315 315 315 314 313 314 316 313 314 316 319 321 322 326 330 321 322 320 326 326 328 328 328 331 331 336 338 334 333 334 333 330 330 328 326 327 327 328 329 330 329 325 325 325 328 329 335
315 314 314 314 313 314 316 315 314 315 320 323 325 329 327 325 323 321 325 327 326 328 326 328 329 335 338 338 336 331 332 330 330 329 331 327 322 326 327 325 325 325 326 325 331 335 327
313 314 314 314 313 313 316 315 315 315 318 317 326 330 325 327 324 323 323 327 327 327 328 330 332 331 334 336 338 332 331 329 328 327 328 326 322 321 323 320 322 323 322 320 321 323 324
311 314 314 314 314 313 316 316 316 316 321 319 325 331 319 319 319 325 325 326 330 328 330 329 331 329 328 329 326 330 331 328 326 325 331 325 317 318 320 322 322 324 323 322 317 319 319
308 312 314 314 314 313 315 317 316 317 321 323 324 330 326 328 321 322 323 325 328 329 330 327 329 328 330 327 326 326 327 325 324 329 325 317 320 325 323 323 324 324 324 324 323 320 319
308 310 314 314 314 313 314 317 316 318 321 322 320 321 320 325 328 326 323 329 331 329 329 329 328 328 325 326 326 325 324 321 327 326 325 319 323 323 322 325 326 327 325 325 325 329 341
307 307 313 314 313 313 313 316 316 316 320 321 322 322 321 326 325 325 325 330 329 330 328 327 328 326 326 325 323 322 322 318 320 320 319 321 320 321 324 324 326 326 328 327 329 327 336
306 306 309 313 313 314 313 314 317 315 314 317 322 321 324 329 326 325 325 328 328 326 329 325 325 324 325 318 318 318 318 318 319 319 315 320 321 320 322 323 329 326 324 330 331 331 330
306 305 306 311 313 313 314 313 316 317 316 319 323 321 320 326 326 325 324 325 322 321 325 325 325 321 317 316 316 319 320 321 321 320 318 317 319 322 324 325 324 327 325 324 328 330 327
305 304 306 308 313 313 314 313 315 317 317 320 323 323 320 325 324 323 324 322 322 321 322 322 321 317 315 313 316 320 321 326 329 327 317 320 317 320 322 327 328 328 327 326 321 329 326
304 305 305 306 311 313 313 314 313 316 317 317 323 322 321 322 322 322 321 320 321 320 321 322 324 320 315 315 318 320 322 325 328 329 326 324 325 323 324 326 329 328 326 325 327 324 327
303 303 305 306 309 311 312 314 313 314 317 317 321 321 321 318 317 322 322 320 320 321 323 322 323 322 320 322 322 323 326 326 326 327 326 324 328 328 322 327 330 325 325 328 324 326 326
303 304 305 306 308 310 311 312 313 313 315 316 317 320 321 319 317 323 323 323 323 322 317 315 319 320 319 320 321 323 325 321 322 326 320 325 321 323 320 324 321 324 325 325 324 325 326

GFSGBSN_925_thetae_219.txt.gz
Theta_e
312 312 311 310 310 309 308 308 308 308 308 309 310 310 310 310 310 311 313 314 314 314 314 314 314 314 316 319 321 327 327 327 328 327 328 327 328 328 330 332 334 336 337 343 345 346 352
313 312 311 310 309 307 307 307 308 308 309 312 313 313 312 311 311 311 312 313 313 314 314 314 314 314 324 318 323 326 328 326 330 329 328 326 328 327 329 333 332 332 335 339 344 343 347
313 312 311 310 309 307 306 307 307 307 310 312 314 314 313 313 312 311 312 313 313 314 314 314 313 316 324 315 323 326 327 326 332 331 326 327 327 327 328 332 330 332 335 336 339 336 342
311 312 311 310 309 307 306 305 306 308 311 312 313 313 313 313 313 312 312 313 314 314 314 313 314 319 315 316 322 319 323 323 323 323 326 327 326 325 329 327 327 332 334 336 336 333 337
309 312 310 310 309 308 307 306 306 307 311 312 313 313 313 314 314 313 313 314 314 315 314 313 318 319 320 323 325 323 323 321 322 325 326 326 323 322 323 324 324 329 334 338 339 336 332
309 312 310 309 310 309 308 307 307 308 310 312 313 312 313 315 316 314 313 315 315 315 317 318 323 322 321 327 323 323 323 322 321 324 323 322 318 320 318 320 327 329 332 336 337 334 333
313 312 310 310 309 310 309 308 307 308 310 311 313 313 314 315 317 315 314 319 314 317 322 310 313 322 323 324 323 321 323 321 323 322 325 321 322 323 322 321 323 325 326 327 329 334 332
315 313 311 310 310 310 310 309 308 309 311 312 313 313 314 316 316 315 313 315 319 319 320 318 321 320 321 323 321 319 320 322 324 324 323 321 323 322 322 321 322 323 325 325 325 331 330
316 315 312 311 310 310 310 309 309 310 313 313 313 313 314 316 315 314 313 316 321 320 318 321 320 321 321 322 322 318 319 322 325 325 325 323 324 324 323 323 324 323 324 324 325 327 328
310 315 315 313 312 311 311 310 309 312 313 312 313 313 314 315 312 315 316 321 324 317 322 324 326 326 323 321 324 322 321 324 325 325 323 323 323 326 325 324 321 322 323 325 328 328 330
311 311 313 315 315 312 311 311 310 312 313 313 313 314 315 312 317 319 323 324 319 320 337 330 324 324 320 321 324 324 323 324 325 325 325 325 326 325 323 323 321 323 322 326 330 329 331
313 312 312 313 315 315 313 312 311 312 313 313 314 315 316 315 315 322 324 323 319 325 334 330 324 323 322 322 324 325 325 324 324 325 324 324 324 325 323 322 323 324 325 324 331 329 333
316 315 313 312 313 315 315 313 312 312 313 313 316 316 316 315 317 324 323 317 321 330 328 329 328 323 322 323 325 326 325 325 324 326 326 325 327 324 323 325 323 321 321 324 332 338 335
316 315 315 313 313 314 316 314 312 313 314 315 317 317 319 319 317 320 322 321 330 330 334 331 328 324 325 324 325 325 323 324 322 323 323 326 330 329 326 324 324 325 322 324 333 335 332
315 314 314 314 313 314 316 315 313 314 315 318 316 318 317 319 318 317 319 324 325 328 333 334 325 327 326 326 326 326 324 323 323 321 325 329 331 328 327 325 325 327 327 323 324 326 334
313 314 313 314 313 313 316 316 314 315 318 320 321 321 323 318 318 322 322 323 325 327 332 329 330 325 325 326 326 325 324 328 328 323 324 328 332 328 329 326 326 328 324 328 324 333 340
311 313 313 314 313 313 316 316 314 315 319 321 320 324 326 319 324 319 325 323 327 326 326 328 329 332 334 334 324 327 331 329 328 328 324 323 325 327 325 326 326 321 321 322 325 328 337
309 310 313 314 314 313 315 317 315 315 319 320 323 327 323 320 322 317 323 324 325 326 325 327 330 334 335 334 334 330 331 329 328 327 328 324 321 327 326 323 320 323 322 322 327 332 325
308 308 313 314 313 313 314 317 316 316 318 318 324 325 321 322 322 321 321 325 326 327 327 330 331 330 331 335 334 330 329 327 326 327 327 325 320 324 324 320 321 321 321 319 319 317 321
308 307 310 313 313 313 314 317 317 317 319 321 324 328 318 317 315 323 325 324 327 326 327 329 328 327 326 325 322 330 328 325 323 325 334 323 314 317 320 321 321 325 324 320 317 317 317
307 306 310 313 313 313 313 317 317 317 320 319 320 326 322 324 322 322 322 324 325 326 326 324 327 326 326 327 323 325 325 324 324 326 321 315 322 321 321 320 323 324 325 323 322 318 319
307 306 306 312 313 313 313 316 317 318 321 320 320 320 318 322 323 326 320 326 325 327 327 328 325 324 323 325 324 324 323 324 325 321 323 316 321 321 321 323 323 327 327 324 330 340 344
306 306 306 309 312 313 313 314 317 317 321 319 320 319 319 324 323 321 321 327 327 327 325 326 326 323 321 322 321 321 320 318 319 318 317 319 317 318 321 321 324 327 326 327 330 332 339
305 305 306 307 311 313 314 313 316 316 315 317 319 318 322 326 324 323 323 325 324 324 326 325 323 323 322 318 317 315 316 316 316 315 313 317 317 316 319 320 326 324 326 327 329 329 328
304 305 306 306 310 312 313 313 314 317 317 320 320 318 318 324 325 323 323 323 320 319 322 324 322 319 314 313 315 316 317 321 321 317 313 314 317 320 321 322 322 326 325 325 328 328 326
304 304 305 306 307 311 312 313 313 315 317 320 320 320 317 322 323 323 321 319 320 319 321 322 319 315 312 311 314 318 318 322 325 325 317 316 313 319 321 324 326 323 326 324 322 329 327
303 304 305 306 306 310 311 312 313 314 316 318 320 319 318 320 319 320 320 319 320 318 319 320 322 318 314 313 316 318 319 322 325 328 324 323 322 320 322 323 324 325 325 323 328 325 325
302 303 305 306 306 307 309 311 312 313 314 316 318 318 318 316 315 319 321 321 319 319 321 319 321 320 318 319 319 320 324 324 323 323 324 324 326 326 322 327 331 324 325 325 321 323 325
302 303 302 304 306 306 307 309 311 312 312 315 317 317 318 316 316 321 321 321 322 319 314 313 318 318 317 319 318 320 323 318 319 325 319 324 319 322 319 320 318 322 324 324 321 323 325

GFSGBSN_925_thetae_222.txt.gz
Theta_e
312 312 311 310 309 307 307 307 307 307 308 311 312 313 312 311 311 311 312 313 313 314 314 314 314 314 315 315 319 324 325 326 327 327 327 326 326 326 328 329 332 334 338 344 345 348 349
312 311 311 310 309 307 306 306 306 307 309 312 313 313 313 313 312 311 312 313 313 313 314 314 314 314 321 316 321 324 327 326 330 329 327 326 326 326 328 330 331 331 332 337 343 344 348
311 311 310 310 309 308 307 306 306 306 308 312 313 313 313 313 313 312 312 312 313 313 314 314 313 315 321 313 321 323 322 326 323 329 327 326 326 326 326 331 329 330 334 334 336 341 346
310 311 310 310 309 309 309 307 307 308 308 310 312 313 313 313 313 312 312 313 313 314 314 313 313 316 312 314 317 318 322 323 322 322 323 325 325 324 326 325 325 331 331 334 333 335 339
312 311 310 310 309 310 309 309 308 308 309 310 312 312 312 313 314 313 312 313 314 314 313 313 318 318 318 321 323 322 321 322 321 324 324 324 321 320 321 323 325 327 332 334 336 334 339
314 312 310 310 310 310 310 310 309 309 310 311 312 313 313 314 315 315 313 314 315 314 315 318 322 323 321 325 325 322 322 321 320 323 323 321 316 319 317 321 328 328 326 327 330 334 337
315 314 312 311 310 310 311 311 310 311 312 313 313 313 313 314 316 316 314 318 310 314 321 309 311 319 321 322 322 319 320 320 321 320 324 320 321 322 322 322 322 323 324 325 326 328 332
311 314 315 314 312 311 311 311 311 312 313 314 313 312 313 314 315 315 313 313 317 317 317 316 317 316 319 320 322 317 320 321 323 324 322 321 323 322 321 320 321 322 325 325 324 327 330
311 311 312 314 315 314 312 312 312 313 314 314 313 312 313 314 315 314 313 315 320 320 316 319 319 320 321 320 322 320 319 321 323 323 323 323 324 323 324 324 324 322 323 322 323 325 327
314 313 312 312 313 315 314 312 312 313 314 314 313 313 313 314 312 313 315 319 322 321 320 322 325 322 321 320 323 320 320 323 324 325 322 323 323 325 324 323 321 323 320 323 327 325 327
316 315 314 313 313 314 316 314 313 313 314 314 313 313 314 312 316 318 321 321 317 318 332 327 325 323 319 321 323 324 321 323 324 324 323 324 326 325 325 324 319 321 321 327 330 327 329
315 314 314 314 313 313 316 315 313 313 314 313 313 314 314 314 315 321 320 321 317 323 333 329 321 322 321 321 322 323 323 322 323 324 323 323 323 324 324 323 319 322 323 322 327 325 328
313 313 313 313 313 313 315 316 314 314 314 314 314 315 315 314 314 321 320 315 320 328 327 328 325 321 320 321 323 325 323 324 323 324 325 324 325 324 322 323 322 322 321 324 329 335 332
311 312 312 313 313 313 314 316 314 314 314 315 317 317 318 319 316 318 319 320 328 327 331 330 324 322 322 322 324 324 323 323 322 322 321 325 330 329 324 323 323 323 321 323 332 331 330
310 310 312 313 313 313 314 316 315 314 314 317 316 317 317 319 319 317 318 323 323 327 331 328 325 325 326 325 325 325 323 322 322 320 323 327 330 326 327 323 324 325 326 321 324 324 332
308 308 310 313 313 313 313 316 315 314 315 317 319 319 322 318 318 320 321 323 323 324 329 328 328 325 326 325 325 324 323 324 325 320 321 326 331 327 327 323 321 325 321 326 323 333 339
309 308 309 313 313 313 313 316 315 315 316 318 319 321 321 317 321 319 324 321 324 324 325 326 328 330 327 330 323 323 325 328 327 325 323 323 324 328 323 323 324 319 319 321 322 327 335
309 305 308 312 313 313 313 316 316 316 317 319 321 322 320 319 320 314 322 322 322 325 324 325 327 331 333 333 329 329 330 328 323 326 327 323 321 327 325 320 319 320 321 320 324 329 327
309 307 308 312 312 313 313 316 317 317 317 318 324 318 319 319 320 319 319 323 324 326 327 328 330 330 332 332 331 329 328 327 327 324 327 323 320 324 323 320 320 321 321 317 315 314 328
308 308 308 310 312 313 313 315 317 318 318 320 322 323 317 314 313 322 324 324 325 323 326 325 327 325 324 324 321 329 326 324 325 326 329 321 313 319 321 321 319 325 324 318 316 318 318
308 307 307 309 311 313 313 314 317 318 320 318 317 323 319 323 321 321 322 324 325 327 324 323 326 326 326 326 324 325 324 323 323 326 319 316 321 320 319 319 322 324 324 325 319 318 319
307 307 307 308 310 312 313 314 317 319 320 319 321 320 317 320 322 325 319 325 325 325 324 327 325 324 324 325 325 323 321 323 326 319 321 315 321 320 322 321 322 324 326 324 331 330 342
305 306 307 307 309 312 313 313 315 318 321 318 318 318 318 321 320 320 320 324 326 325 324 324 322 321 321 322 321 320 318 315 318 318 316 318 317 316 319 320 321 323 326 326 331 332 342
305 306 306 306 307 310 312 313 313 315 317 317 318 316 320 323 321 322 322 323 322 322 325 323 322 322 321 315 315 314 314 315 317 315 312 315 314 314 317 318 324 320 324 326 327 327 327
304 305 306 306 307 309 311 313 313 314 316 319 318 317 317 322 323 322 322 321 319 319 321 321 318 316 311 313 315 316 315 318 320 314 313 312 315 318 320 319 319 325 324 324 329 328 326
303 304 305 307 308 306 310 312 313 313 315 318 318 318 316 321 322 323 320 318 319 318 319 322 320 313 310 310 313 317 317 319 323 323 313 313 312 318 318 323 326 322 324 323 322 327 326
303 303 304 305 306 306 306 309 311 313 313 316 317 318 316 318 317 319 318 318 318 317 318 318 319 319 313 311 314 316 318 319 323 327 323 320 319 319 321 321 321 320 324 320 327 326 325
302 303 303 303 304 305 306 306 310 311 313 314 317 316 317 315 314 317 320 319 318 317 319 317 320 319 315 317 316 317 322 322 322 322 323 322 323 322 321 325 327 322 324 324 320 321 324
302 302 303 303 303 304 305 305 307 310 312 313 315 315 317 314 315 319 321 321 321 318 313 312 317 316 316 318 317 318 321 317 317 324 319 323 319 324 320 322 317 321 324 321 321 323 325